| time (UTC) | temp F | wind direction | speed knots | gust knots | rain 1hr in | rain 24hr in | rain mn in | humidity % | barometer mb |
| 20260509012023 | 62 | 0 | 0.0 | 0.0 | 0.00 | 0.02 | 0.02 | 81 | 1008.5 |
| 20260509011541 | 62 | 0 | 0.0 | 0.0 | 0.00 | 0.02 | 0.02 | 80 | 1008.5 |
| 20260509011025 | 63 | 0 | 0.0 | 0.0 | 0.00 | 0.02 | 0.02 | 80 | 1008.4 |
| 20260509010524 | 63 | 0 | 0.0 | 0.0 | 0.00 | 0.02 | 0.02 | 79 | 1008.4 |
| 20260509010049 | 63 | 0 | 0.0 | 3.5 | 0.00 | 0.02 | 0.02 | 78 | 1008.4 |
| 20260509005526 | 64 | 0 | 0.0 | 3.5 | 0.00 | 0.02 | 0.02 | 77 | 1008.4 |
| 20260509005028 | 64 | 0 | 0.0 | 2.6 | 0.00 | 0.02 | 0.02 | 77 | 1008.3 |
| 20260509004537 | 65 | 0 | 0.0 | 1.7 | 0.00 | 0.02 | 0.02 | 76 | 1008.3 |
| 20260509004024 | 65 | 0 | 0.0 | 1.7 | 0.00 | 0.02 | 0.02 | 76 | 1008.1 |
| 20260509003526 | 65 | 0 | 0.0 | 1.7 | 0.00 | 0.02 | 0.02 | 76 | 1008.2 |
| 20260509003037 | 65 | 0 | 0.0 | 2.6 | 0.00 | 0.02 | 0.02 | 76 | 1008.1 |
| 20260509002524 | 65 | 320 | 0.0 | 2.6 | 0.00 | 0.02 | 0.02 | 75 | 1008.0 |
| 20260509002024 | 66 | 0 | 0.0 | 2.6 | 0.00 | 0.02 | 0.02 | 74 | 1008.1 |
| 20260509001536 | 66 | 343 | 0.0 | 3.5 | 0.00 | 0.02 | 0.02 | 74 | 1008.0 |
| 20260509001025 | 66 | 0 | 0.9 | 3.5 | 0.00 | 0.02 | 0.02 | 73 | 1007.9 |
| 20260509000524 | 66 | 0 | 0.0 | 2.6 | 0.00 | 0.02 | 0.02 | 74 | 1008.0 |
| 20260509000039 | 66 | 0 | 0.0 | 2.6 | 0.00 | 0.02 | 0.02 | 73 | 1007.9 |
| 20260508235524 | 66 | 0 | 0.0 | 2.6 | 0.00 | 0.02 | 0.02 | 72 | 1007.9 |
| 20260508235025 | 66 | 0 | 0.0 | 3.5 | 0.00 | 0.02 | 0.02 | 73 | 1007.7 |
| 20260508234538 | 66 | 0 | 0.9 | 3.5 | 0.00 | 0.02 | 0.02 | 73 | 1007.7 |
| 20260508234026 | 66 | 11 | 0.0 | 2.6 | 0.00 | 0.02 | 0.02 | 73 | 1007.8 |
| 20260508233528 | 66 | 301 | 0.0 | 7.0 | 0.00 | 0.02 | 0.02 | 73 | 1007.9 |
| 20260508233037 | 65 | 0 | 0.9 | 7.0 | 0.00 | 0.02 | 0.02 | 74 | 1008.0 |
| 20260508232524 | 66 | 0 | 3.5 | 7.0 | 0.00 | 0.02 | 0.02 | 73 | 1008.1 |
| 20260508232024 | 66 | 0 | 0.0 | 5.2 | 0.00 | 0.02 | 0.02 | 74 | 1008.1 |
| 20260508231545 | 66 | 0 | 0.0 | 3.5 | 0.00 | 0.02 | 0.02 | 75 | 1008.1 |
| 20260508231029 | 65 | 297 | 0.0 | 3.5 | 0.00 | 0.02 | 0.02 | 75 | 1008.1 |
| 20260508230524 | 65 | 0 | 0.0 | 3.5 | 0.00 | 0.02 | 0.02 | 74 | 1008.1 |
| 20260508230050 | 64 | 0 | 0.9 | 3.5 | 0.00 | 0.02 | 0.02 | 75 | 1008.1 |
| 20260508225524 | 64 | 300 | 0.9 | 3.5 | 0.00 | 0.02 | 0.02 | 76 | 1008.0 |
| 20260508225025 | 64 | 0 | 0.9 | 2.6 | 0.01 | 0.02 | 0.02 | 76 | 1008.1 |
| 20260508224544 | 64 | 0 | 0.0 | 0.0 | 0.01 | 0.02 | 0.02 | 80 | 1007.9 |
| 20260508224024 | 63 | 0 | 0.0 | 0.0 | 0.01 | 0.02 | 0.02 | 79 | 1007.9 |
| 20260508223524 | 63 | 0 | 0.0 | 0.0 | 0.01 | 0.02 | 0.02 | 78 | 1007.9 |
| 20260508223039 | 63 | 0 | 0.0 | 0.0 | 0.01 | 0.02 | 0.02 | 80 | 1007.8 |
| 20260508222528 | 63 | 0 | 0.0 | 0.9 | 0.01 | 0.02 | 0.02 | 80 | 1007.7 |
| 20260508222026 | 63 | 0 | 0.0 | 0.9 | 0.01 | 0.02 | 0.02 | 81 | 1007.6 |
| 20260508221545 | 63 | 5 | 0.0 | 0.9 | 0.01 | 0.02 | 0.02 | 83 | 1007.5 |
| 20260508221026 | 62 | 0 | 0.0 | 1.7 | 0.01 | 0.02 | 0.02 | 83 | 1007.6 |
| 20260508220525 | 61 | 0 | 0.0 | 2.6 | 0.01 | 0.02 | 0.02 | 84 | 1007.6 |
| 20260508220037 | 61 | 0 | 0.0 | 5.2 | 0.01 | 0.02 | 0.02 | 85 | 1007.4 |
| 20260508215524 | 60 | 0 | 0.0 | 5.2 | 0.01 | 0.02 | 0.02 | 86 | 1007.3 |
| 20260508215023 | 60 | 0 | 0.0 | 1.7 | 0.00 | 0.01 | 0.01 | 85 | 1007.6 |
| 20260508214541 | 60 | 0 | 0.0 | 0.0 | 0.00 | 0.01 | 0.01 | 85 | 1007.9 |
| 20260508214024 | 60 | 0 | 0.0 | 3.5 | 0.00 | 0.01 | 0.01 | 85 | 1008.2 |
| 20260508213526 | 60 | 0 | 0.0 | 3.5 | 0.00 | 0.01 | 0.01 | 85 | 1008.5 |
| 20260508213040 | 60 | 0 | 0.0 | 4.3 | 0.00 | 0.01 | 0.01 | 84 | 1008.7 |
| 20260508212524 | 61 | 0 | 0.0 | 4.3 | 0.00 | 0.01 | 0.01 | 84 | 1009.0 |
| 20260508212025 | 61 | 0 | 0.0 | 4.3 | 0.00 | 0.01 | 0.01 | 84 | 1009.1 |
| 20260508211538 | 61 | 0 | 0.0 | 2.6 | 0.00 | 0.01 | 0.01 | 84 | 1009.1 |
| 20260508211025 | 61 | 0 | 0.0 | 2.6 | 0.00 | 0.01 | 0.01 | 84 | 1009.2 |
| 20260508210526 | 61 | 0 | 0.0 | 0.0 | 0.00 | 0.01 | 0.01 | 84 | 1009.2 |
| 20260508210036 | 61 | 0 | 0.0 | 0.0 | 0.00 | 0.01 | 0.01 | 84 | 1009.4 |
| 20260508205525 | 61 | 0 | 0.0 | 1.7 | 0.00 | 0.01 | 0.01 | 84 | 1009.4 |
| 20260508205030 | 61 | 0 | 0.0 | 1.7 | 0.00 | 0.01 | 0.01 | 82 | 1009.4 |
| 20260508204544 | 61 | 0 | 0.0 | 3.5 | 0.00 | 0.01 | 0.01 | 83 | 1009.4 |
| 20260508204023 | 62 | 0 | 0.0 | 3.5 | 0.00 | 0.01 | 0.01 | 83 | 1009.5 |
| 20260508203523 | 62 | 0 | 0.0 | 4.3 | 0.00 | 0.01 | 0.01 | 82 | 1009.5 |
| 20260508203035 | 62 | 0 | 0.0 | 4.3 | 0.00 | 0.01 | 0.01 | 82 | 1009.4 |
| 20260508202526 | 63 | 0 | 0.0 | 3.5 | 0.01 | 0.01 | 0.01 | 81 | 1009.5 |
| 20260508202023 | 63 | 0 | 0.0 | 3.5 | 0.01 | 0.01 | 0.01 | 80 | 1009.5 |
| 20260508201536 | 63 | 0 | 0.0 | 2.6 | 0.01 | 0.01 | 0.01 | 80 | 1009.6 |
| 20260508201027 | 63 | 0 | 0.0 | 2.6 | 0.01 | 0.01 | 0.01 | 80 | 1009.5 |
| 20260508200523 | 63 | 0 | 0.0 | 1.7 | 0.01 | 0.01 | 0.01 | 80 | 1009.4 |
| 20260508200050 | 63 | 0 | 0.0 | 1.7 | 0.01 | 0.01 | 0.01 | 80 | 1009.4 |
| 20260508195522 | 64 | 0 | 0.0 | 1.7 | 0.01 | 0.01 | 0.01 | 81 | 1009.5 |
| 20260508195022 | 64 | 0 | 0.0 | 4.3 | 0.01 | 0.01 | 0.01 | 80 | 1009.4 |
| 20260508194535 | 64 | 0 | 0.0 | 4.3 | 0.01 | 0.01 | 0.01 | 80 | 1009.4 |
| 20260508194020 | 64 | 0 | 0.0 | 5.2 | 0.01 | 0.01 | 0.01 | 80 | 1009.4 |
| 20260508193526 | 64 | 302 | 0.0 | 6.1 | 0.01 | 0.01 | 0.01 | 80 | 1009.5 |
| 20260508193037 | 64 | 270 | 0.0 | 6.1 | 0.01 | 0.01 | 0.01 | 80 | 1009.7 |
| 20260508192525 | 64 | 286 | 1.7 | 6.1 | 0.00 | 0.00 | 0.00 | 80 | 1009.5 |
| 20260508192024 | 64 | 0 | 0.0 | 0.0 | 0.00 | 0.00 | 0.00 | 79 | 1009.1 |
| 20260508191535 | 64 | 0 | 0.0 | 0.0 | 0.00 | 0.00 | 0.00 | 77 | 1009.0 |
| 20260508191021 | 64 | 0 | 0.0 | 0.0 | 0.00 | 0.00 | 0.00 | 76 | 1008.9 |
| 20260508190521 | 64 | 0 | 0.0 | 0.0 | 0.00 | 0.00 | 0.00 | 74 | 1008.9 |
| 20260508190043 | 64 | 0 | 0.0 | 0.0 | 0.00 | 0.00 | 0.00 | 74 | 1009.0 |
| 20260508185525 | 64 | 0 | 0.0 | 0.9 | 0.00 | 0.00 | 0.00 | 76 | 1009.1 |
| 20260508185021 | 65 | 0 | 0.0 | 1.7 | 0.00 | 0.00 | 0.00 | 78 | 1009.2 |
| 20260508184541 | 64 | 0 | 0.0 | 1.7 | 0.00 | 0.00 | 0.00 | 79 | 1009.2 |
| 20260508184020 | 64 | 0 | 0.0 | 0.0 | 0.00 | 0.00 | 0.00 | 81 | 1009.2 |
| 20260508183520 | 64 | 0 | 0.0 | 0.0 | 0.00 | 0.00 | 0.00 | 80 | 1009.3 |
| 20260508183037 | 63 | 0 | 0.0 | 0.0 | 0.00 | 0.00 | 0.00 | 80 | 1009.2 |
| 20260508182526 | 63 | 0 | 0.0 | 0.0 | 0.00 | 0.00 | 0.00 | 79 | 1009.1 |
| 20260508182023 | 63 | 0 | 0.0 | 0.9 | 0.00 | 0.00 | 0.00 | 78 | 1009.2 |
| 20260508181537 | 63 | 0 | 0.0 | 1.7 | 0.00 | 0.00 | 0.00 | 77 | 1009.2 |
| 20260508181023 | 63 | 0 | 0.0 | 1.7 | 0.00 | 0.00 | 0.00 | 77 | 1009.6 |
| 20260508180525 | 63 | 171 | 0.0 | 0.0 | 0.00 | 0.00 | 0.00 | 79 | 1009.8 |
| 20260508180035 | 63 | 0 | 0.0 | 0.0 | 0.00 | 0.00 | 0.00 | 81 | 1009.3 |
| 20260508175520 | 63 | 0 | 0.0 | 0.0 | 0.00 | 0.00 | 0.00 | 79 | 1009.4 |
| 20260508175024 | 63 | 0 | 0.0 | 0.0 | 0.00 | 0.00 | 0.00 | 80 | 1009.5 |
| 20260508174539 | 63 | 0 | 0.0 | 0.0 | 0.00 | 0.00 | 0.00 | 78 | 1009.2 |
| 20260508174022 | 63 | 0 | 0.0 | 0.0 | 0.00 | 0.00 | 0.00 | 75 | 1009.3 |
| 20260508173521 | 64 | 0 | 0.0 | 1.7 | 0.00 | 0.00 | 0.00 | 71 | 1009.6 |
| 20260508173038 | 64 | 0 | 0.0 | 2.6 | 0.00 | 0.00 | 0.00 | 70 | 1009.6 |
| 20260508172524 | 64 | 149 | 0.0 | 5.2 | 0.00 | 0.00 | 0.00 | 69 | 1010.0 |
| 20260508172023 | 64 | 171 | 0.0 | 5.2 | 0.00 | 0.00 | 0.00 | 68 | 1010.2 |
| 20260508171535 | 65 | 220 | 0.0 | 4.3 | 0.00 | 0.00 | 0.00 | 68 | 1009.9 |
| 20260508171022 | 65 | 0 | 0.0 | 1.7 | 0.00 | 0.00 | 0.00 | 67 | 1010.0 |
| 20260508170523 | 65 | 0 | 0.0 | 1.7 | 0.00 | 0.00 | 0.00 | 67 | 1010.1 |
| 20260508170036 | 65 | 219 | 0.0 | 1.7 | 0.00 | 0.00 | 0.00 | 67 | 1010.2 |
| 20260508165524 | 64 | 0 | 0.0 | 1.7 | 0.00 | 0.00 | 0.00 | 69 | 1010.2 |
| 20260508165023 | 64 | 144 | 0.0 | 1.7 | 0.00 | 0.00 | 0.00 | 70 | 1010.3 |
| 20260508164538 | 64 | 0 | 0.0 | 0.0 | 0.00 | 0.00 | 0.00 | 70 | 1010.3 |
| 20260508164026 | 63 | 0 | 0.0 | 4.3 | 0.00 | 0.00 | 0.00 | 69 | 1010.6 |
| 20260508163523 | 63 | 0 | 0.0 | 4.3 | 0.00 | 0.00 | 0.00 | 71 | 1010.2 |
| 20260508163034 | 62 | 315 | 0.0 | 3.5 | 0.00 | 0.00 | 0.00 | 71 | 1009.8 |
| 20260508162525 | 62 | 0 | 0.9 | 4.3 | 0.00 | 0.00 | 0.00 | 71 | 1009.6 |
| 20260508162024 | 63 | 0 | 0.0 | 4.3 | 0.00 | 0.00 | 0.00 | 70 | 1009.8 |
| 20260508161539 | 63 | 0 | 0.0 | 0.0 | 0.00 | 0.00 | 0.00 | 69 | 1009.6 |
| 20260508161025 | 63 | 0 | 0.0 | 0.0 | 0.00 | 0.00 | 0.00 | 68 | 1010.2 |
| 20260508160524 | 63 | 0 | 0.0 | 0.0 | 0.00 | 0.00 | 0.00 | 69 | 1010.5 |
| 20260508160036 | 63 | 0 | 0.0 | 1.7 | 0.00 | 0.00 | 0.00 | 69 | 1010.6 |
| 20260508155527 | 63 | 0 | 0.0 | 1.7 | 0.00 | 0.00 | 0.00 | 68 | 1010.6 |
| 20260508155025 | 63 | 156 | 0.0 | 2.6 | 0.00 | 0.00 | 0.00 | 68 | 1010.6 |
| 20260508154536 | 63 | 0 | 0.0 | 2.6 | 0.00 | 0.00 | 0.00 | 68 | 1010.5 |
| 20260508154025 | 63 | 0 | 0.0 | 2.6 | 0.00 | 0.00 | 0.00 | 69 | 1010.6 |
| 20260508153526 | 62 | 189 | 0.0 | 1.7 | 0.00 | 0.00 | 0.00 | 68 | 1010.4 |
| 20260508153037 | 62 | 0 | 0.0 | 0.9 | 0.00 | 0.00 | 0.00 | 69 | 1010.4 |
| 20260508152524 | 62 | 0 | 0.0 | 2.6 | 0.00 | 0.00 | 0.00 | 70 | 1010.4 |
| 20260508152024 | 62 | 0 | 0.0 | 2.6 | 0.00 | 0.00 | 0.00 | 69 | 1010.2 |
| 20260508151534 | 62 | 0 | 0.0 | 0.9 | 0.00 | 0.00 | 0.00 | 70 | 1010.2 |
| 20260508151026 | 61 | 0 | 0.0 | 0.9 | 0.00 | 0.00 | 0.00 | 70 | 1010.3 |
| 20260508150527 | 61 | 0 | 0.0 | 1.7 | 0.00 | 0.00 | 0.00 | 69 | 1010.3 |
| 20260508150042 | 61 | 0 | 0.0 | 1.7 | 0.00 | 0.00 | 0.00 | 69 | 1010.3 |
| 20260508145529 | 61 | 0 | 0.0 | 1.7 | 0.00 | 0.00 | 0.00 | 70 | 1010.3 |
| 20260508145024 | 61 | 0 | 0.0 | 2.6 | 0.00 | 0.00 | 0.00 | 70 | 1010.3 |
| 20260508144538 | 61 | 0 | 0.0 | 2.6 | 0.00 | 0.00 | 0.00 | 70 | 1010.4 |
| 20260508144027 | 61 | 0 | 0.0 | 0.9 | 0.00 | 0.00 | 0.00 | 71 | 1010.4 |
| 20260508143526 | 60 | 0 | 0.0 | 1.7 | 0.00 | 0.00 | 0.00 | 70 | 1010.6 |
| 20260508143036 | 60 | 0 | 0.0 | 1.7 | 0.00 | 0.00 | 0.00 | 70 | 1010.6 |
| 20260508142524 | 60 | 329 | 0.0 | 5.2 | 0.00 | 0.00 | 0.00 | 70 | 1010.6 |
| 20260508142026 | 60 | 0 | 0.0 | 6.1 | 0.00 | 0.00 | 0.00 | 69 | 1010.4 |
| 20260508141537 | 60 | 148 | 0.0 | 6.1 | 0.00 | 0.00 | 0.00 | 69 | 1010.4 |
| 20260508141029 | 60 | 295 | 0.0 | 7.0 | 0.00 | 0.00 | 0.00 | 69 | 1010.2 |
| 20260508140525 | 60 | 202 | 0.9 | 7.0 | 0.00 | 0.00 | 0.00 | 69 | 1010.1 |
| 20260508140035 | 60 | 172 | 0.9 | 7.0 | 0.00 | 0.00 | 0.00 | 69 | 1010.0 |
| 20260508135522 | 59 | 173 | 0.0 | 6.1 | 0.00 | 0.00 | 0.00 | 69 | 1010.2 |
| 20260508135028 | 59 | 235 | 0.9 | 6.1 | 0.00 | 0.00 | 0.00 | 69 | 1010.1 |
| 20260508134538 | 59 | 0 | 0.0 | 6.1 | 0.00 | 0.00 | 0.00 | 69 | 1010.1 |
| 20260508134025 | 59 | 240 | 1.7 | 7.0 | 0.00 | 0.00 | 0.00 | 70 | 1010.1 |
| 20260508133528 | 59 | 193 | 0.9 | 7.8 | 0.00 | 0.00 | 0.00 | 70 | 1010.1 |
| 20260508133038 | 59 | 0 | 1.7 | 7.8 | 0.00 | 0.00 | 0.00 | 70 | 1010.2 |
| 20260508132522 | 58 | 0 | 0.0 | 4.3 | 0.00 | 0.00 | 0.00 | 70 | 1010.3 |
| 20260508132024 | 58 | 0 | 1.7 | 4.3 | 0.00 | 0.00 | 0.00 | 70 | 1010.3 |
| 20260508131535 | 58 | 173 | 0.0 | 6.1 | 0.00 | 0.00 | 0.00 | 71 | 1010.4 |
| 20260508131028 | 57 | 194 | 0.9 | 6.1 | 0.00 | 0.00 | 0.00 | 71 | 1010.3 |
| 20260508130522 | 57 | 172 | 0.9 | 4.3 | 0.00 | 0.00 | 0.00 | 71 | 1010.3 |
| 20260508130056 | 57 | 190 | 0.0 | 4.3 | 0.00 | 0.00 | 0.00 | 71 | 1010.3 |
| 20260508125523 | 57 | 0 | 0.0 | 7.8 | 0.00 | 0.00 | 0.00 | 71 | 1010.3 |
| 20260508125023 | 57 | 0 | 0.9 | 8.7 | 0.00 | 0.00 | 0.00 | 71 | 1010.2 |
| 20260508124535 | 57 | 180 | 3.5 | 8.7 | 0.00 | 0.00 | 0.00 | 71 | 1010.3 |
| 20260508124022 | 57 | 0 | 0.0 | 2.6 | 0.00 | 0.00 | 0.00 | 71 | 1010.2 |
| 20260508123524 | 57 | 136 | 0.0 | 2.6 | 0.00 | 0.00 | 0.00 | 71 | 1010.2 |
| 20260508123035 | 57 | 0 | 0.0 | 0.0 | 0.00 | 0.00 | 0.00 | 71 | 1010.2 |
| 20260508122523 | 57 | 0 | 0.0 | 0.0 | 0.00 | 0.00 | 0.00 | 70 | 1010.2 |
| 20260508122022 | 57 | 0 | 0.0 | 3.5 | 0.00 | 0.00 | 0.00 | 69 | 1010.2 |
| 20260508121538 | 57 | 0 | 0.0 | 4.3 | 0.00 | 0.00 | 0.00 | 69 | 1010.3 |
| 20260508121023 | 57 | 0 | 0.9 | 5.2 | 0.00 | 0.00 | 0.00 | 69 | 1009.9 |
| 20260508120523 | 57 | 182 | 0.9 | 7.8 | 0.00 | 0.00 | 0.00 | 69 | 1009.8 |
| 20260508120038 | 57 | 0 | 0.9 | 7.8 | 0.00 | 0.00 | 0.00 | 70 | 1009.8 |
| 20260508115522 | 57 | 0 | 0.9 | 7.0 | 0.00 | 0.00 | 0.00 | 70 | 1009.7 |
| 20260508115023 | 57 | 182 | 0.9 | 7.0 | 0.00 | 0.00 | 0.00 | 70 | 1009.8 |
| 20260508114535 | 57 | 176 | 0.0 | 7.0 | 0.00 | 0.00 | 0.00 | 70 | 1009.7 |
| 20260508114022 | 57 | 176 | 0.9 | 7.0 | 0.00 | 0.00 | 0.00 | 70 | 1009.5 |
| 20260508113523 | 57 | 171 | 1.7 | 7.0 | 0.00 | 0.00 | 0.00 | 70 | 1009.4 |
| 20260508113041 | 57 | 202 | 0.9 | 6.1 | 0.00 | 0.00 | 0.00 | 70 | 1009.5 |
| 20260508112523 | 57 | 206 | 0.9 | 7.0 | 0.00 | 0.00 | 0.00 | 71 | 1009.5 |
| 20260508112023 | 57 | 0 | 0.9 | 7.0 | 0.00 | 0.00 | 0.00 | 71 | 1009.8 |
| 20260508111534 | 57 | 165 | 0.9 | 7.8 | 0.00 | 0.00 | 0.00 | 70 | 1009.6 |
| 20260508111023 | 57 | 0 | 0.0 | 7.8 | 0.00 | 0.00 | 0.00 | 70 | 1009.5 |
| 20260508110522 | 57 | 170 | 1.7 | 7.8 | 0.00 | 0.00 | 0.00 | 70 | 1009.4 |
| 20260508110037 | 57 | 216 | 0.0 | 7.0 | 0.00 | 0.00 | 0.00 | 70 | 1009.6 |
| 20260508105526 | 57 | 190 | 0.0 | 4.3 | 0.00 | 0.00 | 0.00 | 69 | 1009.7 |
| 20260508105025 | 57 | 308 | 0.0 | 6.1 | 0.00 | 0.00 | 0.00 | 68 | 1009.8 |
| 20260508104603 | 57 | 0 | 0.9 | 6.1 | 0.00 | 0.00 | 0.00 | 68 | 1009.8 |
| 20260508104021 | 57 | 0 | 0.9 | 6.1 | 0.00 | 0.00 | 0.00 | 67 | 1009.6 |
| 20260508103521 | 57 | 177 | 0.0 | 9.6 | 0.00 | 0.00 | 0.00 | 67 | 1009.6 |
| 20260508103044 | 57 | 0 | 0.0 | 9.6 | 0.00 | 0.00 | 0.00 | 67 | 1009.9 |
| 20260508102525 | 57 | 191 | 0.9 | 7.8 | 0.00 | 0.00 | 0.00 | 67 | 1009.8 |
| 20260508102024 | 57 | 259 | 0.9 | 7.0 | 0.00 | 0.00 | 0.00 | 67 | 1009.6 |
| 20260508101542 | 57 | 0 | 0.9 | 8.7 | 0.00 | 0.00 | 0.00 | 67 | 1009.6 |
| 20260508101025 | 57 | 167 | 0.9 | 8.7 | 0.00 | 0.00 | 0.00 | 67 | 1009.4 |
| 20260508100524 | 57 | 150 | 0.9 | 8.7 | 0.00 | 0.00 | 0.00 | 66 | 1009.6 |
| 20260508100034 | 58 | 0 | 1.7 | 10.4 | 0.00 | 0.00 | 0.00 | 66 | 1009.5 |
| 20260508095524 | 58 | 153 | 0.9 | 10.4 | 0.00 | 0.00 | 0.00 | 65 | 1009.3 |
| 20260508095023 | 58 | 174 | 2.6 | 8.7 | 0.00 | 0.00 | 0.00 | 65 | 1009.5 |
| 20260508094543 | 58 | 211 | 0.9 | 7.0 | 0.00 | 0.00 | 0.00 | 65 | 1009.5 |
| 20260508094025 | 58 | 146 | 1.7 | 7.0 | 0.00 | 0.00 | 0.00 | 65 | 1009.4 |
| 20260508093525 | 58 | 0 | 1.7 | 11.3 | 0.00 | 0.00 | 0.00 | 65 | 1009.3 |
| 20260508093038 | 58 | 173 | 0.9 | 11.3 | 0.00 | 0.00 | 0.00 | 64 | 1009.4 |
| 20260508092525 | 58 | 177 | 0.9 | 7.0 | 0.00 | 0.00 | 0.00 | 65 | 1009.3 |
| 20260508092024 | 58 | 210 | 0.9 | 7.0 | 0.00 | 0.00 | 0.00 | 64 | 1009.4 |
| 20260508091536 | 58 | 144 | 0.9 | 7.0 | 0.00 | 0.00 | 0.00 | 64 | 1009.3 |
| 20260508091027 | 58 | 172 | 1.7 | 7.0 | 0.00 | 0.00 | 0.00 | 63 | 1009.3 |
| 20260508090525 | 58 | 195 | 1.7 | 8.7 | 0.00 | 0.00 | 0.00 | 63 | 1009.3 |
| 20260508090037 | 59 | 0 | 0.9 | 8.7 | 0.00 | 0.00 | 0.00 | 63 | 1009.3 |
| 20260508085525 | 58 | 186 | 1.7 | 7.8 | 0.00 | 0.00 | 0.00 | 63 | 1009.4 |
| 20260508085025 | 58 | 254 | 1.7 | 8.7 | 0.00 | 0.00 | 0.00 | 63 | 1009.4 |
| 20260508084541 | 59 | 0 | 1.7 | 8.7 | 0.00 | 0.00 | 0.00 | 63 | 1009.5 |
| 20260508084025 | 59 | 190 | 0.9 | 7.0 | 0.00 | 0.00 | 0.00 | 63 | 1009.4 |
| 20260508083528 | 59 | 235 | 1.7 | 7.8 | 0.00 | 0.00 | 0.00 | 63 | 1009.4 |
| 20260508083056 | 59 | 195 | 1.7 | 7.8 | 0.00 | 0.00 | 0.00 | 63 | 1009.4 |
| 20260508082524 | 59 | 0 | 1.7 | 7.0 | 0.00 | 0.00 | 0.00 | 63 | 1009.5 |
| 20260508082024 | 59 | 176 | 0.9 | 7.8 | 0.00 | 0.00 | 0.00 | 62 | 1009.5 |
| 20260508081552 | 59 | 159 | 2.6 | 8.7 | 0.00 | 0.00 | 0.00 | 62 | 1009.5 |
| 20260508081024 | 59 | 207 | 1.7 | 8.7 | 0.00 | 0.00 | 0.00 | 62 | 1009.6 |
| 20260508080526 | 59 | 211 | 0.9 | 8.7 | 0.00 | 0.00 | 0.00 | 62 | 1009.6 |
| 20260508080036 | 59 | 162 | 1.7 | 8.7 | 0.00 | 0.00 | 0.00 | 62 | 1009.7 |
| 20260508075524 | 59 | 208 | 1.7 | 7.0 | 0.00 | 0.00 | 0.00 | 62 | 1009.8 |
| 20260508075028 | 60 | 201 | 0.9 | 7.0 | 0.00 | 0.00 | 0.00 | 62 | 1009.9 |
| 20260508074536 | 60 | 220 | 1.7 | 7.8 | 0.00 | 0.00 | 0.00 | 61 | 1010.0 |
| 20260508074026 | 60 | 0 | 0.9 | 7.8 | 0.00 | 0.00 | 0.00 | 61 | 1010.1 |
| 20260508073525 | 60 | 0 | 1.7 | 7.8 | 0.00 | 0.00 | 0.00 | 61 | 1010.1 |
| 20260508073034 | 60 | 0 | 0.0 | 4.3 | 0.00 | 0.00 | 0.00 | 62 | 1010.2 |
| 20260508072523 | 60 | 182 | 0.0 | 5.2 | 0.00 | 0.00 | 0.00 | 61 | 1010.4 |
| 20260508072124 | 60 | 0 | 0.9 | 5.2 | 0.00 | 0.00 | 0.00 | 62 | 1010.3 |
| 20260508071538 | 60 | 0 | 0.9 | 5.2 | 0.00 | 0.00 | 0.00 | 62 | 1010.4 |
| 20260508071023 | 59 | 156 | 1.7 | 8.7 | 0.00 | 0.00 | 0.00 | 62 | 1010.4 |
| 20260508070527 | 59 | 229 | 0.0 | 8.7 | 0.00 | 0.00 | 0.00 | 63 | 1010.4 |
| 20260508070113 | 59 | 0 | 1.7 | 8.7 | 0.00 | 0.00 | 0.00 | 63 | 1010.5 |
| 20260508065523 | 59 | 153 | 0.9 | 7.0 | 0.00 | 0.00 | 0.00 | 63 | 1010.4 |
| 20260508065022 | 59 | 0 | 0.9 | 9.6 | 0.00 | 0.00 | 0.00 | 64 | 1010.4 |
| 20260508064538 | 59 | 168 | 1.7 | 9.6 | 0.00 | 0.00 | 0.00 | 64 | 1010.3 |
| 20260508064025 | 59 | 0 | 1.7 | 8.7 | 0.00 | 0.00 | 0.00 | 65 | 1010.4 |
| 20260508063528 | 59 | 203 | 1.7 | 6.1 | 0.00 | 0.00 | 0.00 | 64 | 1010.6 |
| 20260508063037 | 59 | 0 | 0.0 | 5.2 | 0.00 | 0.00 | 0.00 | 64 | 1010.7 |
| 20260508062522 | 59 | 0 | 0.9 | 6.1 | 0.00 | 0.00 | 0.00 | 64 | 1010.9 |
| 20260508062023 | 59 | 179 | 1.7 | 6.1 | 0.00 | 0.00 | 0.00 | 63 | 1011.0 |
| 20260508061537 | 58 | 0 | 0.9 | 8.7 | 0.00 | 0.00 | 0.00 | 63 | 1011.1 |
| 20260508061022 | 58 | 181 | 0.0 | 8.7 | 0.00 | 0.00 | 0.00 | 63 | 1011.2 |
| 20260508060524 | 58 | 159 | 1.7 | 6.1 | 0.00 | 0.00 | 0.00 | 63 | 1011.1 |
| 20260508060044 | 58 | 185 | 1.7 | 6.1 | 0.00 | 0.00 | 0.00 | 63 | 1011.2 |
| 20260508055522 | 58 | 167 | 0.0 | 5.2 | 0.00 | 0.00 | 0.00 | 63 | 1011.2 |
| 20260508055024 | 58 | 234 | 0.0 | 5.2 | 0.00 | 0.00 | 0.00 | 64 | 1011.2 |
| 20260508054543 | 58 | 185 | 0.0 | 5.2 | 0.00 | 0.00 | 0.00 | 63 | 1011.2 |
| 20260508054023 | 58 | 167 | 0.0 | 6.1 | 0.00 | 0.00 | 0.00 | 63 | 1011.1 |
| 20260508053521 | 58 | 157 | 0.0 | 6.1 | 0.00 | 0.00 | 0.00 | 63 | 1011.2 |
| 20260508053038 | 59 | 189 | 0.0 | 6.1 | 0.00 | 0.00 | 0.00 | 63 | 1011.2 |
| 20260508052524 | 59 | 157 | 0.0 | 5.2 | 0.00 | 0.00 | 0.00 | 62 | 1011.1 |
| 20260508052023 | 59 | 212 | 0.9 | 5.2 | 0.00 | 0.00 | 0.00 | 61 | 1011.2 |
| 20260508051535 | 59 | 197 | 0.9 | 6.1 | 0.00 | 0.00 | 0.00 | 61 | 1011.2 |
| 20260508051023 | 59 | 0 | 0.9 | 6.1 | 0.00 | 0.00 | 0.00 | 61 | 1011.3 |
| 20260508050527 | 60 | 0 | 0.9 | 7.8 | 0.00 | 0.00 | 0.00 | 61 | 1011.3 |
| 20260508050036 | 60 | 172 | 1.7 | 7.8 | 0.00 | 0.00 | 0.00 | 61 | 1011.2 |
| 20260508045523 | 60 | 0 | 0.9 | 7.8 | 0.00 | 0.00 | 0.00 | 61 | 1011.3 |
| 20260508045023 | 60 | 180 | 0.9 | 7.8 | 0.00 | 0.00 | 0.00 | 60 | 1011.3 |
| 20260508044535 | 60 | 192 | 1.7 | 9.6 | 0.00 | 0.00 | 0.00 | 60 | 1011.3 |
| 20260508044023 | 60 | 203 | 3.5 | 9.6 | 0.00 | 0.00 | 0.00 | 60 | 1011.3 |
| 20260508043522 | 60 | 0 | 2.6 | 7.8 | 0.00 | 0.00 | 0.00 | 59 | 1011.2 |
| 20260508043053 | 60 | 188 | 2.6 | 7.0 | 0.00 | 0.00 | 0.00 | 59 | 1011.3 |
| 20260508042524 | 61 | 157 | 2.6 | 8.7 | 0.00 | 0.00 | 0.00 | 59 | 1011.4 |
| 20260508042022 | 61 | 163 | 1.7 | 8.7 | 0.00 | 0.00 | 0.00 | 59 | 1011.3 |
| 20260508041537 | 61 | 163 | 1.7 | 8.7 | 0.00 | 0.00 | 0.00 | 59 | 1011.4 |
| 20260508041025 | 61 | 186 | 2.6 | 8.7 | 0.00 | 0.00 | 0.00 | 60 | 1011.4 |
| 20260508040523 | 61 | 152 | 0.9 | 7.0 | 0.00 | 0.00 | 0.00 | 59 | 1011.4 |
| 20260508040036 | 61 | 146 | 0.9 | 7.8 | 0.00 | 0.00 | 0.00 | 60 | 1011.4 |
| 20260508035523 | 61 | 180 | 0.9 | 7.8 | 0.00 | 0.00 | 0.00 | 60 | 1011.3 |
| 20260508035025 | 61 | 198 | 0.9 | 7.8 | 0.00 | 0.00 | 0.00 | 60 | 1011.3 |
| 20260508034535 | 61 | 222 | 2.6 | 7.8 | 0.00 | 0.00 | 0.00 | 60 | 1011.4 |
| 20260508034023 | 61 | 181 | 1.7 | 7.0 | 0.00 | 0.00 | 0.00 | 59 | 1011.4 |
| 20260508033525 | 61 | 188 | 2.6 | 7.8 | 0.00 | 0.00 | 0.00 | 59 | 1011.3 |
| 20260508033038 | 61 | 160 | 1.7 | 7.8 | 0.00 | 0.00 | 0.00 | 59 | 1011.2 |
| 20260508032523 | 62 | 165 | 0.9 | 7.8 | 0.00 | 0.00 | 0.00 | 59 | 1011.2 |
| 20260508032023 | 62 | 148 | 1.7 | 8.7 | 0.00 | 0.00 | 0.00 | 58 | 1011.2 |
| 20260508031536 | 62 | 165 | 2.6 | 8.7 | 0.00 | 0.00 | 0.00 | 58 | 1011.2 |
| 20260508031024 | 62 | 0 | 1.7 | 8.7 | 0.00 | 0.00 | 0.00 | 57 | 1011.1 |
| 20260508030522 | 62 | 229 | 1.7 | 8.7 | 0.00 | 0.00 | 0.00 | 57 | 1011.2 |
| 20260508030048 | 63 | 154 | 0.9 | 9.6 | 0.00 | 0.00 | 0.00 | 57 | 1011.0 |
| 20260508025522 | 63 | 183 | 3.5 | 9.6 | 0.00 | 0.00 | 0.00 | 56 | 1010.9 |
| 20260508025023 | 63 | 194 | 3.5 | 8.7 | 0.00 | 0.00 | 0.00 | 56 | 1010.9 |
| 20260508024536 | 63 | 163 | 2.6 | 9.6 | 0.00 | 0.00 | 0.00 | 56 | 1010.8 |
| 20260508024025 | 63 | 0 | 1.7 | 9.6 | 0.00 | 0.00 | 0.00 | 56 | 1010.8 |
| 20260508023524 | 63 | 182 | 0.9 | 8.7 | 0.00 | 0.00 | 0.00 | 55 | 1010.8 |
| 20260508023037 | 63 | 186 | 2.6 | 8.7 | 0.00 | 0.00 | 0.00 | 55 | 1010.7 |
| 20260508022523 | 64 | 165 | 2.6 | 7.0 | 0.00 | 0.00 | 0.00 | 54 | 1010.8 |
| 20260508022021 | 64 | 170 | 1.7 | 8.7 | 0.00 | 0.00 | 0.00 | 54 | 1010.6 |
| 20260508021541 | 64 | 173 | 1.7 | 8.7 | 0.00 | 0.00 | 0.00 | 53 | 1010.6 |
| 20260508021024 | 64 | 162 | 0.9 | 7.0 | 0.00 | 0.00 | 0.00 | 53 | 1010.6 |
| 20260508020526 | 64 | 184 | 1.7 | 7.0 | 0.00 | 0.00 | 0.00 | 53 | 1010.6 |
| 20260508020036 | 64 | 173 | 1.7 | 7.0 | 0.00 | 0.00 | 0.00 | 52 | 1010.4 |
| 20260508015524 | 65 | 188 | 0.9 | 7.0 | 0.00 | 0.00 | 0.00 | 51 | 1010.4 |
| 20260508015024 | 65 | 155 | 1.7 | 7.0 | 0.00 | 0.00 | 0.00 | 51 | 1010.3 |
| 20260508014535 | 65 | 0 | 0.9 | 6.1 | 0.00 | 0.00 | 0.00 | 50 | 1010.3 |
| 20260508014024 | 65 | 169 | 0.9 | 5.2 | 0.00 | 0.00 | 0.00 | 49 | 1010.4 |
| 20260508013523 | 65 | 179 | 0.9 | 5.2 | 0.00 | 0.00 | 0.00 | 48 | 1010.2 |
| 20260508013034 | 65 | 175 | 1.7 | 6.1 | 0.00 | 0.00 | 0.00 | 49 | 1010.2 |
| 20260508012523 | 65 | 0 | 1.7 | 6.1 | 0.00 | 0.00 | 0.00 | 48 | 1010.3 |